Theta_e
346 342 342 338 340 340 340 341 342 344 345 346 344 343 341 341 341 340 339 341 339 340 341 341 340 343 343 345 347 346 349 350 348 346 344 344 344 342 341 341 342 341 341
348 341 341 339 338 339 339 340 341 342 344 345 344 345 344 342 341 341 339 340 340 340 341 342 341 343 343 343 343 343 345 348 349 346 345 344 344 344 343 343 343 342 339
349 348 341 340 338 341 341 341 341 342 342 345 346 346 345 342 340 340 340 339 339 340 340 341 342 343 343 343 343 344 347 348 349 347 345 344 344 344 343 343 343 342 340
349 347 343 341 340 341 339 338 337 335 336 346 346 346 345 341 340 342 340 339 341 339 340 342 342 343 343 343 343 343 346 347 348 346 344 343 343 344 343 343 343 342 341
349 347 345 343 345 339 338 336 335 335 336 344 344 344 342 339 339 339 340 341 343 340 340 342 342 342 344 345 343 343 343 346 347 345 344 344 344 343 343 343 342 341 341
348 348 346 346 344 340 337 336 337 336 344 341 338 337 340 340 338 338 340 339 341 342 342 340 340 338 342 344 343 342 343 344 347 346 342 343 343 343 343 342 341 341 340
349 346 347 346 344 340 340 339 339 340 341 341 336 334 334 338 335 331 336 341 339 341 341 341 339 348 340 343 342 341 342 343 346 345 343 341 342 342 342 341 340 339 339
350 348 348 345 345 341 341 342 343 339 339 339 333 334 326 332 333 334 338 340 339 342 338 339 338 342 342 339 340 341 341 343 346 345 343 341 340 342 341 341 340 337 333
350 350 349 348 347 344 343 347 345 342 338 335 338 333 324 324 327 330 333 334 336 341 340 337 338 341 342 342 341 341 343 344 345 345 345 341 341 341 340 340 337 332 331
350 349 350 349 348 344 345 344 343 341 339 332 333 332 335 332 323 321 328 333 338 337 340 341 340 340 343 340 342 342 339 342 346 345 345 344 342 341 340 337 335 332 329
350 349 351 350 349 345 346 344 342 339 337 336 332 330 330 331 332 329 323 324 332 333 338 341 341 338 342 344 340 340 338 338 341 341 341 341 342 341 339 335 332 330 331
349 350 349 349 348 345 346 344 344 339 338 336 334 334 331 329 331 330 328 328 327 332 338 341 340 343 340 344 341 336 334 334 333 333 335 338 340 340 337 335 333 333 333
343 347 348 347 345 346 344 343 342 339 337 335 336 332 335 336 336 332 330 330 326 327 333 341 343 341 338 339 341 338 335 331 328 327 329 333 335 335 335 335 334 332 334
341 348 347 346 345 344 342 341 337 336 338 336 335 336 332 335 335 329 331 331 323 326 328 332 338 340 343 339 341 335 338 328 325 324 325 328 329 331 331 331 331 331 331
344 346 346 344 343 341 340 339 335 336 336 335 335 335 335 337 335 332 335 338 332 320 322 328 332 339 337 338 338 341 343 325 325 323 323 324 325 326 326 326 326 326 327
342 343 342 341 340 339 338 338 336 337 336 334 334 334 335 336 334 333 336 334 336 331 323 331 331 335 337 335 337 340 341 329 323 322 322 322 321 321 323 322 322 324 325
342 340 339 338 336 335 336 337 337 335 334 334 335 334 333 335 335 334 341 333 333 337 330 327 327 327 329 334 339 336 337 334 326 322 322 320 319 319 319 318 319 319 319
339 337 336 334 333 334 337 336 335 334 333 332 332 333 332 334 335 336 332 331 335 337 332 323 321 321 322 326 331 331 329 329 327 321 319 318 316 315 314 313 312 312 312
336 336 335 333 333 334 335 336 334 333 332 331 327 327 329 329 333 335 333 331 336 337 332 326 318 319 321 322 323 325 324 323 323 320 316 316 314 314 312 311 310 310 311
336 335 335 333 333 335 335 334 334 334 332 329 326 327 327 325 327 332 332 333 334 334 330 323 318 317 319 320 320 316 315 318 318 320 319 317 315 314 312 311 313 313 310
334 334 333 334 335 335 333 335 334 333 334 328 327 326 327 325 322 324 335 333 332 330 325 319 317 316 314 315 315 317 314 315 316 318 317 317 317 316 315 313 317 315 309
336 335 334 334 334 332 305 311 325 335 333 330 325 326 326 321 320 315 317 319 328 330 322 319 317 316 315 315 316 314 313 312 308 315 314 311 318 316 318 321 314 309 307
337 335 335 334 334 333 304 304 310 335 332 331 327 325 323 326 324 328 312 312 314 312 319 322 320 317 316 316 317 314 315 315 314 315 315 309 313 315 322 316 307 306 305
336 336 335 334 335 326 303 303 307 333 334 331 327 325 323 330 328 324 327 326 327 329 327 329 326 323 321 321 319 317 315 314 315 318 318 308 312 314 322 320 304 305 303
337 335 335 334 334 331 302 302 311 333 332 329 326 324 324 325 308 307 327 326 326 328 309 308 308 306 304 305 315 318 312 313 312 311 317 315 317 320 321 320 317 303 302
335 334 334 334 318 331 302 301 315 330 326 325 322 319 306 317 300 303 327 326 325 324 325 324 318 310 313 311 308 319 319 314 313 310 318 319 320 319 315 321 320 315 313
Wind_Speed
11 12 11 11 11 11 11 10 10 8 10 10 9 9 9 7 7 5 5 12 8 9 9 10 10 10 9 10 8 8 9 11 14 18 19 16 17 18 18 16 16 19 15
10 12 12 12 12 11 11 10 9 9 10 7 10 11 9 8 8 8 6 6 11 10 11 11 11 12 11 11 9 8 9 11 16 18 16 15 19 18 18 17 17 17 18
13 12 12 12 12 10 11 9 9 8 8 9 10 9 9 10 9 8 8 8 8 14 13 12 12 12 11 12 11 10 10 11 13 18 17 17 18 17 17 17 16 17 18
15 13 11 11 11 10 10 10 9 9 10 7 8 8 7 9 6 8 8 8 3 5 13 14 12 12 12 13 12 11 10 11 12 14 19 19 16 15 15 15 16 16 16
15 13 11 10 10 10 10 9 8 10 9 7 7 7 9 8 8 6 10 9 10 9 6 15 11 9 13 13 13 10 11 11 12 14 16 16 15 14 12 12 12 15 15
14 13 10 9 10 9 9 8 11 9 6 6 7 6 5 4 5 6 7 8 11 10 10 7 8 10 12 15 12 10 11 13 14 15 16 14 15 14 11 11 11 12 13
13 12 9 10 10 10 11 11 8 10 7 3 5 8 8 10 8 6 5 9 9 9 11 9 6 4 7 10 9 9 10 11 14 14 15 16 13 13 13 13 13 12 20
12 12 10 10 12 8 10 10 10 6 5 6 5 5 4 5 7 7 5 7 8 6 8 9 8 5 6 9 11 10 10 12 13 14 14 13 15 12 15 16 21 24 24
12 11 12 9 10 8 8 9 9 10 6 5 8 5 4 4 4 5 10 6 7 7 8 6 7 8 7 4 7 10 9 9 12 15 15 16 14 18 21 23 25 26 23
12 11 11 10 10 9 8 8 7 7 6 7 5 7 9 5 3 4 4 7 6 8 8 7 7 8 8 7 5 2 13 9 9 13 16 15 18 21 25 27 26 26 25
11 12 11 11 9 7 7 8 7 6 7 5 8 4 7 5 4 3 4 6 6 8 5 5 6 7 8 6 7 8 10 9 9 9 13 20 21 24 26 26 27 26 25
9 10 10 9 8 7 6 7 7 9 7 6 7 4 6 5 5 4 2 6 5 3 3 5 5 6 6 6 4 11 10 9 8 9 15 22 24 25 27 26 26 25 23
8 9 10 9 8 7 7 6 6 6 7 7 7 6 5 4 6 6 4 5 4 3 2 5 4 5 5 5 6 6 10 9 9 11 14 22 24 24 24 24 24 23 22
8 10 8 8 8 7 6 5 6 6 6 6 6 6 5 4 5 5 5 5 6 4 4 5 4 6 6 4 6 5 10 10 11 13 15 19 19 21 20 21 20 19 17
8 9 8 7 6 6 6 6 5 6 5 6 6 5 6 5 5 6 3 6 3 5 7 6 3 4 3 4 4 7 9 13 14 15 17 19 20 17 17 15 18 17 15
8 8 7 7 7 6 6 6 5 6 7 6 6 7 7 5 6 6 4 3 3 4 4 6 3 2 2 4 6 4 7 12 15 20 21 20 20 19 19 19 16 14 12
8 8 8 8 7 7 7 7 4 5 7 6 5 6 6 6 6 6 5 5 5 4 5 5 4 3 3 3 8 8 8 9 11 24 24 22 18 18 16 15 15 16 14
8 8 8 8 8 8 8 7 7 6 6 6 6 5 5 4 5 4 5 5 4 4 4 8 3 2 4 3 7 7 7 8 11 22 24 24 21 19 17 17 16 14 13
9 9 8 9 9 8 8 6 5 6 5 6 4 4 3 1 2 5 6 5 5 5 6 8 4 2 4 2 8 8 9 10 8 22 21 22 21 18 16 16 15 11 8
9 9 9 8 8 7 7 6 6 6 7 8 5 3 3 1 2 4 5 6 6 8 8 8 8 4 4 4 8 11 10 9 11 10 14 14 15 16 12 11 10 6 5
9 10 9 8 7 6 3 3 5 7 7 7 5 2 3 3 3 6 5 7 9 10 9 9 7 6 5 5 7 8 12 10 10 9 10 8 8 7 5 6 7 6 8
9 9 8 8 8 5 6 5 3 5 7 8 6 4 3 5 5 5 4 8 7 12 11 8 7 10 9 8 7 10 13 12 7 4 8 6 5 5 4 7 6 11 9
9 8 7 6 6 7 4 1 5 4 6 7 6 3 3 4 8 7 6 9 11 11 11 9 12 11 11 11 11 12 13 11 9 7 9 6 1 4 4 6 7 8 7
8 7 7 6 6 6 4 3 4 3 4 5 6 4 4 6 8 9 10 10 10 11 13 9 10 13 13 11 13 11 11 11 8 7 7 4 4 6 7 6 5 6 6
7 7 6 7 6 7 4 3 4 4 6 7 5 3 4 5 10 9 10 12 11 10 9 14 11 13 14 13 12 12 10 13 10 5 4 4 8 8 7 6 7 7 5
7 5 6 6 4 8 5 2 6 5 5 5 5 4 3 5 9 9 10 12 12 12 12 13 12 14 14 13 10 7 11 11 8 6 6 7 9 8 6 7 7 8 8
Wind_Direction
209 207 216 218 208 214 205 221 227 218 221 233 237 232 240 247 264 265 274 160 210 241 238 238 231 223 207 200 190 185 182 191 188 178 187 187 177 182 193 205 195 186 182
206 210 214 215 221 220 217 217 219 225 225 238 229 239 246 244 240 258 253 189 187 223 236 231 228 225 214 192 192 200 196 190 192 187 193 193 189 189 202 200 201 175 169
211 212 216 216 222 220 227 223 226 224 244 224 247 240 236 244 249 242 249 253 180 197 219 230 226 223 220 212 202 201 196 195 196 199 198 194 188 200 205 204 197 179 174
216 202 223 220 221 220 209 220 216 226 236 225 242 236 239 259 254 264 249 263 280 254 196 213 220 225 227 219 209 207 194 192 193 195 195 198 194 195 201 199 195 186 178
201 214 216 216 210 216 217 219 222 237 241 236 244 240 229 239 237 248 256 250 252 263 258 174 197 222 220 214 207 211 198 188 191 194 195 193 187 186 183 188 187 186 173
195 200 212 207 197 208 212 216 227 232 235 243 249 244 276 257 251 248 253 253 240 228 250 223 187 200 202 200 201 208 215 196 193 196 193 182 183 178 173 173 175 175 172
190 194 202 188 197 203 197 209 213 220 232 236 234 224 240 236 241 247 240 244 235 212 208 219 231 138 156 165 180 198 213 207 197 193 188 187 172 166 167 156 150 144 134
179 184 196 182 193 193 197 199 205 208 212 196 251 273 265 232 231 227 233 231 236 233 226 209 214 157 234 173 180 188 209 208 186 185 169 172 162 154 145 141 137 134 133
176 189 186 181 175 198 182 197 200 213 222 200 247 233 243 251 175 181 222 232 231 220 228 232 198 179 211 196 154 171 190 198 182 179 172 172 166 154 145 140 137 137 137
172 178 178 173 177 201 184 191 201 227 229 215 212 236 247 262 252 180 205 200 223 213 203 211 203 191 184 185 149 37 163 183 191 176 176 177 155 148 149 144 142 140 143
165 175 174 171 176 202 188 186 191 218 211 227 237 196 227 225 249 227 176 168 197 211 176 203 194 195 197 168 182 155 162 175 169 171 163 154 152 153 149 149 148 152 154
163 165 164 170 175 195 187 199 199 202 234 227 226 211 229 210 225 228 206 181 166 148 179 187 186 206 188 178 193 141 156 160 151 150 154 151 152 154 154 157 154 156 152
159 156 166 172 179 182 193 196 198 202 199 216 220 220 215 229 231 209 175 166 148 154 191 169 180 183 159 190 163 163 145 150 145 151 145 151 156 157 155 156 152 154 155
161 153 175 177 176 181 177 173 191 217 202 207 219 238 243 232 255 233 159 165 137 148 168 147 188 173 166 184 89 151 153 143 139 137 139 147 148 151 156 152 149 145 149
133 160 164 170 170 170 168 170 217 209 211 205 215 224 234 230 215 243 143 169 196 166 171 176 150 166 144 179 134 196 163 137 148 139 138 141 140 141 140 135 127 129 140
146 156 162 164 163 161 179 189 178 198 205 194 215 204 220 221 210 224 179 214 219 187 125 121 89 85 101 167 165 197 147 137 143 136 135 134 129 126 127 126 133 141 152
153 159 162 156 161 169 176 192 207 162 194 186 203 212 206 213 225 195 188 229 237 171 165 99 81 50 47 262 144 109 137 134 137 135 130 125 123 121 125 124 122 117 115
158 156 155 161 169 172 176 189 202 171 197 191 181 214 214 206 205 217 189 199 223 170 169 143 91 73 58 24 101 111 111 119 132 131 133 123 115 113 112 115 120 122 145
153 155 160 170 170 174 183 196 203 183 145 116 103 45 112 133 239 198 187 184 204 159 134 142 110 67 75 66 100 92 97 100 109 117 112 108 107 113 121 123 140 169 145
158 157 170 172 176 186 190 192 185 163 159 123 125 162 171 181 280 227 202 194 155 116 125 118 115 101 91 66 113 115 100 106 113 114 104 110 112 118 137 151 147 150 149
161 162 170 165 167 170 157 177 167 171 163 146 142 159 193 205 267 233 236 143 164 134 139 129 127 125 122 105 122 120 108 111 98 113 112 110 122 126 154 172 157 170 149
165 161 168 159 153 113 54 5 282 169 157 160 156 194 182 194 215 226 289 146 190 142 151 144 145 142 128 121 126 128 125 126 117 79 109 93 128 134 173 201 153 143 165
169 178 174 153 142 115 85 82 301 183 163 165 150 172 149 161 195 166 96 112 76 72 143 155 144 145 137 142 135 135 135 133 128 137 117 104 120 132 184 125 122 147 152
175 174 171 155 144 95 109 141 252 219 148 126 135 143 155 178 149 145 153 149 146 134 143 148 151 149 143 146 136 129 121 109 101 120 139 114 198 163 186 139 144 152 170
163 167 155 145 137 112 123 157 264 150 108 109 110 123 157 203 144 176 152 142 140 124 60 90 106 117 120 115 132 126 128 140 135 144 180 129 196 155 180 173 161 172 183
152 156 145 123 94 125 132 202 274 109 118 105 103 97 60 178 165 181 143 151 139 142 131 120 111 107 122 125 128 144 146 138 133 133 211 194 177 159 183 194 185 176 197